STARLINK-35717

Last updated on Mon Dec 15 2025 00:02:12 GMT+0000 (Coordinated Universal Time)

1 66839U 25280U 25348.25003472 -.01708349 00000+0 -13332-1 0 9990 2 66839 69.9936 194.5047 0003829 270.3102 61.1332 15.74339325 3149
UTC large
Height (km)
Speed (km/s)
/
Latitude / Longitude
Inclination (degrees)
Orbital Period (minutes)
Azimuth
Elevation
Range (km)
Doppler Factor

Next 0 passes for location: London (51.5072 / 0.1276)

Sorry there are no passes over London.